Vorticity
10 4 0 -8 14 7 -1 -1 -3 1 -2 0 9 8 6 11 8 19 7 10 6 4 7 6 3 3 8 6 4 9 5 3 6 16 10 8 4 2 2 3 4 4 4 6
16 4 -0 17 11 6 4 7 6 8 20 13 15 3 -1 -1 6 4 8 7 6 8 7 5 5 8 7 5 5 5 4 2 2 1 1 2 4 4 2 2 1 1 2 3
-2 -6 28 1 8 4 4 2 3 -1 -4 -5 5 17 35 25 32 31 23 18 13 7 9 10 10 10 11 11 11 9 8 7 7 8 9 8 6 6 6 7 6 3 2 0
21 3 7 14 11 7 1 7 11 9 3 5 10 10 -15 -8 1 -1 2 6 13 16 13 10 12 9 7 7 8 9 11 13 12 13 14 13 12 12 22 21 17 15 17 9
-3 10 5 -7 -4 10 -1 14 9 9 6 11 15 2 57 29 11 13 16 13 9 9 8 2 -3 3 6 11 10 10 9 6 6 8 9 4 5 5 2 0 8 16 15 13
-2 11 19 16 18 -1 13 20 17 18 15 37 7 -11 38 15 10 19 10 7 8 6 3 4 10 13 12 5 2 5 7 13 13 8 9 8 9 4 1 1 2 -0 1 4
1 -2 -1 -5 3 6 11 13 8 17 7 -12 18 31 -40 -0 18 6 12 11 8 5 3 5 4 4 -3 2 6 6 8 6 4 -3 -10 -5 1 6 9 10 5 2 3 4
1 40 15 15 3 -9 -2 -5 -37 23 16 5 27 19 8 12 19 13 10 10 5 3 2 7 6 4 6 3 3 2 1 -4 -2 -3 3 -0 -2 8 14 17 20 20 18 12
35 31 20 -10 22 -0 26 11 6 -19 17 19 -7 2 7 8 10 9 7 12 8 7 5 4 1 -2 4 2 6 9 6 3 2 1 3 8 16 14 13 14 14 17 16 15
27 11 21 15 13 23 -32 46 12 8 10 4 20 15 -12 4 9 15 12 6 6 4 3 3 0 3 3 7 6 1 -5 -1 7 16 15 13 15 13 11 10 12 13 17 24
15 -7 22 23 8 24 25 -14 -2 3 -31 1 15 17 28 30 6 15 8 6 5 6 5 6 5 9 5 -0 0 -4 8 15 14 13 15 17 19 16 14 12 14 12 16 14
-6 21 2 1 13 -3 11 22 -21 -41 28 12 -8 23 -15 21 19 15 6 11 6 6 6 9 -3 -4 5 -6 13 20 20 18 17 17 14 15 16 20 20 17 14 11 10 12
-6 13 -8 18 22 31 11 5 29 -15 8 11 -22 -1 14 9 7 9 10 8 8 6 0 -20 12 5 10 20 20 18 13 10 10 14 12 13 13 21 19 21 15 2 10 9
29 13 -16 -28 -25 38 15 11 12 9 2 -5 -2 -27 -3 1 10 17 8 9 5 -22 3 4 7 20 21 14 12 10 9 9 9 15 13 11 8 6 11 10 3 -0 10 9
-12 -7 -1 8 7 1 17 22 7 8 -4 -13 18 10 -1 5 16 14 1 -2 -28 2 5 11 19 12 10 10 9 9 8 12 10 11 13 3 17 11 6 1 8 7 9 34
7 1 21 12 -3 14 3 6 13 19 11 13 -4 -3 8 24 -15 10 -14 -7 4 8 16 15 10 12 10 12 11 8 9 11 12 9 11 11 11 11 10 11 10 13 40 6
2 -16 8 22 21 10 42 11 9 8 12 16 3 7 10 -2 7 6 12 1 13 18 12 12 8 7 9 8 8 5 12 15 10 14 15 8 13 15 10 13 32 18 15 14
9 6 8 18 6 7 4 6 41 27 13 8 1 19 2 2 2 -0 0 23 11 10 10 9 10 12 9 12 12 8 14 19 10 6 10 11 14 11 30 16 6 4 8 7
22 13 -1 -15 17 -39 30 25 -1 -4 12 9 9 14 15 16 2 35 17 7 8 9 13 12 9 10 12 12 8 6 18 18 10 8 19 21 23 30 -13 11 4 8 10 11
17 27 -31 17 3 -4 35 34 15 13 11 15 19 22 13 23 17 10 12 12 12 12 8 11 9 10 6 12 8 5 17 20 13 26 51 18 17 8 12 6 13 10 6 8
19 18 -20 3 -1 24 -1 9 21 -6 2 18 29 13 6 -1 13 -0 -13 5 7 3 -1 11 5 2 4 3 11 19 32 16 20 2 -4 23 -3 14 12 8 9 8 14 17
-14 -25 28 6 3 13 9 28 3 19 6 15 2 3 9 5 2 7 6 9 10 3 -1 7 11 6 9 7 8 9 41 23 -2 2 4 13 8 7 10 6 9 9 11 14
4 -21 -36 8 34 3 16 26 3 3 3 9 5 -8 12 14 8 10 9 6 6 9 5 4 4 6 8 3 2 15 7 34 7 4 5 7 8 9 6 10 11 10 13 15
-10 4 -6 2 15 16 5 2 5 6 1 -3 5 11 4 6 10 9 9 8 14 7 0 1 7 7 6 7 5 4 6 36 40 10 6 19 10 9 6 9 8 10 9 10
-8 18 17 -1 27 12 4 4 12 -3 6 3 8 11 12 10 11 13 12 11 11 7 8 8 7 8 8 8 4 9 13 22 19 17 15 12 8 9 8 7 8 9 7 7
6 4 -1 22 11 -4 30 11 -3 2 12 13 11 9 12 11 9 9 8 8 8 9 10 10 9 9 9 11 17 19 18 11 10 13 9 12 10 9 9 9 9 10 8 8
Height
3088 3093 3092 3092 3095 3100 3100 3102 3103 3104 3104 3102 3103 3101 3103 3104 3103 3102 3103 3102 3103 3104 3105 3106 3108 3109 3110 3111 3112 3114 3115 3115 3115 3115 3116 3117 3118 3119 3120 3119 3119 3119 3119 3120
3081 3081 3086 3090 3091 3093 3094 3096 3097 3098 3097 3097 3097 3094 3093 3096 3096 3097 3096 3097 3096 3097 3097 3098 3099 3102 3103 3105 3106 3107 3108 3109 3109 3110 3111 3112 3112 3112 3112 3112 3112 3112 3112 3111
3072 3077 3081 3082 3083 3086 3088 3090 3093 3094 3094 3091 3090 3084 3082 3083 3082 3085 3087 3088 3089 3089 3090 3091 3092 3094 3096 3098 3099 3100 3100 3101 3102 3102 3103 3104 3103 3104 3104 3103 3104 3104 3103 3103
3067 3071 3072 3074 3076 3080 3083 3085 3085 3087 3089 3086 3085 3076 3076 3075 3076 3077 3078 3080 3080 3081 3084 3086 3088 3089 3090 3091 3092 3092 3092 3093 3093 3093 3093 3094 3094 3094 3095 3095 3095 3094 3094 3093
3056 3059 3063 3066 3070 3073 3077 3078 3081 3082 3082 3082 3079 3079 3068 3071 3067 3069 3069 3070 3073 3076 3079 3081 3083 3084 3084 3085 3085 3086 3087 3087 3086 3086 3085 3084 3083 3083 3083 3083 3083 3083 3083 3082
3051 3053 3057 3061 3066 3067 3071 3074 3077 3077 3078 3068 3070 3070 3058 3061 3060 3061 3063 3065 3067 3069 3071 3073 3075 3075 3077 3078 3079 3080 3080 3080 3080 3079 3079 3078 3077 3076 3075 3075 3074 3074 3072 3072
3042 3040 3046 3051 3057 3061 3065 3070 3071 3067 3065 3051 3057 3058 3052 3051 3054 3054 3058 3059 3061 3063 3065 3067 3069 3070 3071 3072 3072 3072 3072 3072 3071 3070 3070 3069 3068 3066 3065 3064 3063 3061 3061 3061
3030 3035 3038 3039 3044 3052 3054 3059 3061 3055 3045 3043 3049 3044 3043 3043 3047 3049 3052 3054 3055 3057 3059 3061 3063 3064 3065 3065 3065 3065 3065 3064 3062 3061 3059 3057 3055 3053 3053 3052 3051 3049 3047 3045
3021 3025 3026 3032 3037 3046 3048 3049 3058 3057 3053 3050 3037 3037 3037 3036 3040 3044 3046 3047 3049 3051 3053 3055 3056 3057 3057 3056 3056 3055 3054 3052 3050 3048 3045 3044 3042 3040 3038 3037 3036 3034 3033 3031
3014 3019 3019 3024 3030 3035 3037 3044 3048 3050 3046 3038 3024 3028 3027 3028 3032 3036 3039 3041 3044 3046 3048 3049 3050 3051 3051 3050 3049 3047 3045 3042 3040 3036 3033 3031 3030 3027 3024 3021 3019 3018 3017 3016
3007 3010 3018 3018 3019 3023 3031 3033 3035 3038 3037 3028 3018 3018 3019 3024 3028 3032 3034 3036 3039 3041 3043 3044 3045 3045 3044 3043 3041 3039 3037 3033 3031 3028 3024 3022 3019 3015 3012 3008 3006 3004 3003 3002
3001 3004 3009 3013 3011 3015 3021 3021 3024 3023 3028 3027 3024 3018 3019 3023 3025 3027 3029 3031 3032 3034 3037 3038 3038 3038 3036 3034 3032 3029 3025 3021 3017 3013 3011 3007 3004 3002 2999 2996 2994 2994 2993 2991
2992 2997 3003 3008 3010 3009 3008 3010 3016 3019 3020 3012 3018 3009 3015 3018 3021 3023 3022 3023 3026 3028 3029 3029 3028 3027 3025 3023 3020 3017 3014 3009 3006 3002 2999 2996 2994 2990 2989 2987 2986 2983 2981 2979
2988 2990 2989 2989 2994 2996 2999 3000 3004 3011 3008 3006 2993 3008 3006 3010 3013 3015 3016 3017 3018 3020 3020 3019 3017 3015 3014 3012 3009 3007 3003 3000 2998 2994 2991 2988 2986 2983 2982 2979 2977 2974 2971 2968
2979 2980 2986 2990 2991 2990 2992 2992 2994 2995 2994 2999 2999 3002 3006 3004 3008 3007 3008 3010 3011 3011 3010 3008 3008 3005 3004 3003 3001 2998 2994 2990 2988 2985 2982 2980 2978 2976 2973 2971 2968 2966 2963 2960
2968 2972 2978 2981 2985 2984 2983 2983 2984 2988 2992 2992 2995 2997 3001 2998 2999 3000 3000 3002 3001 3001 3000 2999 2999 2996 2994 2993 2991 2989 2986 2983 2980 2976 2974 2971 2969 2968 2965 2963 2961 2958 2956 2953
2958 2964 2970 2974 2977 2981 2976 2966 2970 2977 2982 2984 2982 2990 2994 2991 2992 2991 2993 2992 2992 2991 2991 2991 2991 2989 2987 2985 2983 2981 2977 2974 2972 2968 2966 2963 2961 2959 2958 2956 2954 2952 2951 2950
2947 2953 2962 2968 2973 2971 2959 2957 2960 2965 2969 2975 2976 2980 2981 2983 2982 2984 2985 2984 2984 2984 2983 2983 2983 2982 2979 2977 2975 2972 2968 2965 2963 2961 2959 2956 2955 2953 2952 2950 2950 2948 2947 2946
2941 2942 2951 2958 2960 2954 2950 2945 2953 2955 2959 2964 2966 2972 2973 2974 2973 2977 2977 2975 2976 2977 2978 2976 2975 2974 2972 2970 2968 2964 2960 2957 2955 2954 2952 2950 2949 2948 2948 2948 2947 2945 2944 2942
2933 2937 2944 2948 2950 2946 2944 2939 2946 2953 2952 2953 2958 2960 2964 2966 2970 2975 2967 2969 2970 2970 2970 2970 2968 2967 2966 2964 2961 2957 2954 2951 2949 2947 2945 2945 2946 2946 2944 2944 2944 2943 2941 2940
2925 2930 2933 2937 2940 2937 2934 2936 2941 2950 2950 2946 2948 2953 2957 2961 2966 2966 2963 2964 2964 2964 2964 2963 2962 2961 2960 2958 2955 2951 2948 2946 2944 2944 2943 2942 2942 2941 2941 2941 2941 2940 2939 2938
2907 2914 2924 2930 2932 2932 2926 2931 2939 2939 2939 2941 2943 2948 2951 2953 2954 2956 2957 2957 2957 2956 2957 2957 2956 2956 2954 2952 2949 2946 2943 2940 2939 2939 2938 2938 2939 2939 2939 2938 2938 2937 2935 2934
2904 2904 2908 2914 2917 2917 2921 2925 2927 2932 2935 2935 2937 2941 2943 2944 2945 2948 2949 2950 2949 2948 2949 2948 2949 2949 2947 2944 2942 2940 2938 2935 2935 2935 2934 2934 2934 2934 2934 2935 2935 2934 2933 2932
2891 2894 2899 2906 2911 2913 2916 2919 2923 2928 2930 2930 2931 2934 2936 2937 2938 2940 2941 2941 2941 2941 2940 2941 2941 2941 2939 2937 2936 2934 2932 2929 2927 2929 2930 2930 2931 2930 2930 2930 2930 2929 2929 2927
2883 2888 2895 2902 2905 2909 2912 2916 2920 2922 2923 2923 2925 2927 2928 2930 2932 2933 2933 2933 2933 2932 2932 2931 2931 2931 2930 2929 2928 2928 2926 2925 2925 2925 2925 2925 2925 2926 2926 2926 2926 2926 2925 2923
2880 2884 2889 2894 2898 2905 2908 2912 2914 2915 2917 2918 2919 2919 2921 2923 2923 2925 2925 2926 2925 2924 2922 2922 2921 2921 2920 2920 2919 2920 2920 2920 2920 2919 2922 2922 2920 2920 2922 2922 2922 2922 2921 2920